CST,Max TemperatureF,Mean TemperatureF,Min TemperatureF,Max Dew PointF,MeanDew PointF,Min DewpointF,Max Humidity, Mean Humidity, Min Humidity, Max Sea Level PressureIn, Mean Sea Level PressureIn, Min Sea Level PressureIn, Max VisibilityMiles, Mean VisibilityMiles, Min VisibilityMiles, Max Wind SpeedMPH, Mean Wind SpeedMPH, Max Gust SpeedMPH,PrecipitationIn, CloudCover, Events, WindDirDegrees
2012-12-1,83,72,60,61,57,48,93,62,31,30.08,30.00,29.93,10,10,10,24,14,32,0.00,3,,203
2012-12-2,81,71,61,62,59,56,93,69,45,30.13,30.02,29.95,10,10,10,22,12,26,0.00,3,,193
2012-12-3,80,69,58,61,59,54,90,66,42,30.03,29.95,29.87,10,10,7,25,13,33,0.00,2,,202
2012-12-4,71,58,44,58,40,31,93,60,26,30.31,30.19,30.02,10,9,2,18,7,22,0.00,1,,24
2012-12-5,73,54,34,31,27,21,76,45,14,30.32,30.17,29.99,10,10,10,8,2,24,0.00,0,,201
2012-12-6,81,61,41,44,35,29,65,43,20,29.97,29.85,29.75,10,10,10,25,9,32,0.00,0,,206
2012-12-7,77,62,46,52,42,32,77,58,38,29.90,29.83,29.75,10,10,10,10,4,14,0.00,2,,60
2012-12-8,80,60,40,55,45,30,96,57,17,29.93,29.85,29.75,10,7,0,14,4,18,0.00,3,Fog,218
2012-12-9,70,55,40,58,47,13,93,60,26,30.10,29.88,29.78,10,7,0,29,11,36,0.00,1,Fog,267
2012-12-10,46,35,23,20,13,9,63,44,25,30.25,30.17,30.09,10,10,9,29,9,38,0.00,2,Snow,326
2012-12-11,61,41,20,19,15,11,68,42,16,30.20,30.11,30.02,10,10,10,16,6,20,0.00,0,,251
2012-12-12,65,44,22,21,17,13,65,40,15,30.26,30.18,30.11,10,10,10,18,8,23,0.00,0,,210
2012-12-13,67,53,38,50,38,21,77,57,37,30.20,30.14,30.09,10,10,10,26,13,35,0.00,3,,186
2012-12-14,67,62,56,58,53,38,90,71,51,30.06,29.90,29.74,10,10,10,30,15,41,0.01,7,Rain,193
2012-12-15,72,57,41,34,33,29,65,45,25,29.96,29.91,29.85,10,10,10,18,8,25,0.00,0,,258
2012-12-16,71,59,47,36,31,24,61,40,19,29.89,29.84,29.74,10,10,10,29,12,36,0.00,0,,261
2012-12-17,71,57,42,33,27,24,58,38,17,30.01,29.92,29.83,10,10,10,25,11,32,0.00,0,,253
2012-12-18,83,60,36,30,22,17,59,34,9,29.91,29.81,29.71,10,10,10,21,7,26,0.00,0,,202
2012-12-19,79,64,48,56,34,7,84,47,9,30.06,29.73,29.57,10,9,4,36,18,44,0.00,3,,234
2012-12-20,54,39,24,19,9,1,49,31,12,30.51,30.40,30.15,10,10,6,31,11,38,0.00,2,,308
2012-12-21,63,41,19,8,4,-1,52,30,8,30.51,30.41,30.30,10,10,10,15,5,20,0.00,0,,204
2012-12-22,66,50,34,46,30,3,66,43,19,30.29,30.15,30.02,10,10,10,25,10,32,0.00,0,,198
2012-12-23,76,60,44,46,36,31,72,47,21,30.01,29.95,29.86,10,10,10,24,10,30,0.00,0,,243
2012-12-24,68,48,27,32,27,23,78,50,22,30.03,29.87,29.68,10,10,10,14,5,17,0.00,0,,47
2012-12-25,55,43,30,38,23,14,64,53,41,30.26,29.96,29.61,10,10,7,29,14,37,0.02,4,Rain,320
2012-12-26,39,31,23,17,16,15,68,53,37,30.31,30.19,30.06,10,10,10,18,6,24,0.00,0,,31
2012-12-27,60,40,20,24,20,13,68,47,26,30.03,29.88,29.78,10,10,10,17,5,22,0.00,0,,184
2012-12-28,49,36,22,26,20,13,64,48,31,30.28,30.05,29.82,10,10,10,17,7,21,0.00,0,,297
2012-12-29,51,35,18,17,15,12,73,49,24,30.49,30.40,30.30,10,10,10,10,4,14,0.00,0,,178
2012-12-30,50,41,32,41,24,10,89,55,21,30.37,30.23,30.10,10,10,7,23,10,29,0.12,4,Rain,160
2012-12-31,65,54,42,49,42,32,89,60,30,30.07,29.99,29.92,10,10,10,23,10,30,0.03,5,Rain,223